Weather History for KTVC - May, 2014

Change the Weather History Date:

Friday, May 30, 2014

  Actual Average Record
Temperature  
Mean Temperature 65 °F 58 °F  
Max Temperature 79 °F 70 °F 92 °F (1937)
Min Temperature 50 °F 47 °F 28 °F (1961)
Degree Days  
Heating Degree Days 0 8  
Month to date heating degree days 326 363  
Since 1 July heating degree days 8080 7430  
Cooling Degree Days 0 1  
Month to date cooling degree days 4 13  
Year to date cooling degree days 4 16  
Growing Degree Days 12 (Base 50)    
Moisture  
Dew Point 50 °F    
Average Humidity 66    
Maximum Humidity 89    
Minimum Humidity 42    
Precipitation  
Precipitation 0.00 in 0.08 in 1.41 in (1975)
Month to date precipitation 3.18 2.50  
Year to date precipitation 9.68 11.46  
Sea Level Pressure  
Sea Level Pressure 30.18 in    
Wind  
Wind Speed 3 mph (NNE)    
Max Wind Speed 13 mph    
Max Gust Speed 15 mph    
Visibility 10 miles    
Events      
T = Trace of Precipitation, MM = Missing Value Source: NWS Daily Summary

Daily Weather History Graph

Daily Weather History Graph

Search for Another Location

Airport or City:

Trip Planner

Search our weather history database for the weather conditions in past years. The results will help you decide how hot, cold, wet, or windy it might be!

Date:

Astronomy

May. 30, 2014 Rise Set
Actual Time 6:01 AM EDT 9:19 PM EDT
Civil Twilight 5:25 AM EDT 9:55 PM EDT
Nautical Twilight 4:38 AM EDT 10:42 PM EDT
Astronomical Twilight 3:40 AM EDT 11:40 PM EDT
Moon 7:47 AM EDT (5/30) 10:52 PM EDT (5/30)
Length of Visible Light 16h 30m
Length of Day
15h 18m
Waxing Crescent, 4% of the Moon is Illuminated
May 30
Waxing Crescent
Jun 5
First Quarter
Jun 13
Full
Jun 19
Last Quarter
Jun 27
New

Hourly Weather History & Observations

Time (EDT) Temp. Dew Point Humidity Pressure Visibility Wind Dir Wind Speed Gust Speed Precip Events Conditions
12:53 AM 54.0 °F 50.0 °F 86% 30.15 in 10.0 mi Calm Calm - N/A   Clear
1:53 AM 54.0 °F 50.0 °F 86% 30.14 in 10.0 mi Calm Calm - N/A   Clear
2:53 AM 54.0 °F 50.0 °F 86% 30.14 in 10.0 mi Calm Calm - N/A   Clear
3:53 AM 53.1 °F 48.9 °F 86% 30.15 in 10.0 mi Calm Calm - N/A   Clear
5:53 AM 50.0 °F 46.9 °F 89% 30.19 in 10.0 mi Calm Calm - N/A   Clear
6:53 AM 51.1 °F 48.9 °F 92% 30.19 in 10.0 mi Calm Calm - N/A   Mostly Cloudy
8:53 AM 62.1 °F 53.1 °F 72% 30.22 in 10.0 mi Calm Calm - N/A   Mostly Cloudy
9:53 AM 68.0 °F 51.1 °F 55% 30.21 in 10.0 mi West 4.6 mph - N/A   Scattered Clouds
10:53 AM 73.0 °F 52.0 °F 48% 30.21 in 10.0 mi Variable 3.5 mph - N/A   Partly Cloudy
11:53 AM 72.0 °F 53.1 °F 51% 30.20 in 10.0 mi NNE 8.1 mph - N/A   Scattered Clouds
12:53 PM 75.0 °F 54.0 °F 48% 30.19 in 10.0 mi NE 6.9 mph - N/A   Scattered Clouds
2:53 PM 73.9 °F 54.0 °F 50% 30.18 in 10.0 mi NNE 6.9 mph - N/A   Mostly Cloudy
3:53 PM 71.1 °F 53.1 °F 53% 30.18 in 10.0 mi NNE 9.2 mph - N/A   Mostly Cloudy
6:53 PM 64.0 °F 48.9 °F 58% 30.17 in 10.0 mi NNE 10.4 mph - N/A   Scattered Clouds
7:53 PM 63.0 °F 46.9 °F 56% 30.17 in 10.0 mi NNE 6.9 mph - N/A   Scattered Clouds
8:53 PM 60.1 °F 46.9 °F 62% 30.17 in 10.0 mi NE 3.5 mph - N/A   Scattered Clouds
9:53 PM 57.0 °F 46.9 °F 69% 30.18 in 10.0 mi Calm Calm - N/A   Partly Cloudy
10:53 PM 55.9 °F 48.0 °F 75% 30.18 in 10.0 mi Calm Calm - N/A   Clear
11:53 PM 54.0 °F 46.9 °F 77% 30.20 in 10.0 mi Calm Calm - N/A   Clear